Погода в Шестаково

Россия / Кировская область     58°55′56″N   50°10′23″E
темп.,
°C
ветер,
м/с
пор.,
м/с
влажн.,
%
обл.,
%
осадки,
мм/ч
давл.,
гПа
погр.,
м
3 марта, ср
ср300:00−8з349739 0.0 99589
03:00−9зсз239640 0.0 99679
06:00−5сз3109596 0.1 996515
09:00−6сз499098 0.2 998545
12:00−4зсз4785100 0.1 999800
15:00−4зсз4886100 0.2 999902
18:00−8з3109395 0.1 999341
21:00−9зюз379692 0.1 999174
4 марта, чт
чт400:00−8юз389596 0.1 996320
03:00−8юз389698 0.2 995285
06:00−8ююз3895100 0.2 992338
09:00−5ююз3794100 0.8 990407
12:00−2ююз3592100 0.5 988515
15:00−1юз1288100 1.0 987385
18:00−4ссз2397100 0.4 98875
21:00−5сз3794100 1.1 991382
5 марта, пт
пт500:00−8сз499494 0.2 994390
03:00−14зсз379595 0.3 996266
06:00−19зсз379767 0.0 999155
09:00−16зсз369251 0.0 1000272
12:00−12зсз358677 0.0 1001614
15:00−11зсз368689 0.1 1003747
18:00−15зсз2396100 0.1 100463
21:00−16зсз259695 0.1 100796
6 марта, сб
сб600:00−19з239736 0.0 100838
03:00−20з239740 0.0 100924
06:00−19з129792 0.0 100931
09:00−16зсз239296 0.1 1009258
12:00−13з358298 0.0 1009771
15:00−13зсз358399 0.1 1008852
18:00−17з2294100 0.1 100820
21:00−20зсз229889 0.1 100920
7 марта, вс
вс700:00−21зюз22990 0.0 100920
03:00−22зюз229942 0.0 100920
06:00−23юз2210089 0.0 100820
09:00−18ююз249480 0.0 1007229
12:00−13ю358640 0.0 1005504
15:00−12ююв588862 0.0 1002582
18:00−12ююв51294100 0.3 1000776
21:00−13ююв51292100 0.9 997670